Key West, FL

7:19 PM EDT on April 26, 2018 (GMT -0400)
Key West International

Weather History for KEYW - October, 2010

Change the Weather History Date:

Monday, October 11, 2010

  Actual Average Record
Temperature  
Mean Temperature 80 °F 81 °F  
Max Temperature 84 °F 85 °F 91 °F (1936)
Min Temperature 75 °F 77 °F 68 °F (1953)
Degree Days  
Heating Degree Days 0 0  
Month to date heating degree days 0  
Since 1 July heating degree days 0  
Cooling Degree Days 14 16  
Month to date cooling degree days 183  
Year to date cooling degree days 3918  
Growing Degree Days 30 (Base 50)    
Moisture  
Dew Point 70 °F    
Average Humidity 72    
Maximum Humidity 82    
Minimum Humidity 58    
Precipitation  
Precipitation 0.00 in 0.19 in 8.94 in (1909)
Month to date precipitation 2.06  
Year to date precipitation 32.44  
Snow  
Snow 0.00 in - - ()
Month to date snowfall  
Since 1 July snowfall  
Since 1 September snowfall  
Snow Depth -    
Sea Level Pressure  
Sea Level Pressure 29.98 in    
Wind  
Wind Speed 8 mph (ENE)    
Max Wind Speed 15 mph    
Max Gust Speed 20 mph    
Visibility 10 miles    
Events      
T = Trace of Precipitation, MM = Missing Value Source: NWS Daily Summary

Daily Weather History Graph

Daily Weather History Graph

Search for Another Location

Airport or City:

Astronomy

Oct. 11, 2010 Rise Set
Actual Time 7:23 AM EDT 7:04 PM EDT
Civil Twilight 7:00 AM EDT 7:26 PM EDT
Nautical Twilight 6:33 AM EDT 7:53 PM EDT
Astronomical Twilight 6:07 AM EDT 8:19 PM EDT
Moon 11:25 AM EDT (10/11) 10:13 PM EDT (10/11)
Length of Visible Light 12h 26m
Length of Day
11h 40m
Waxing Crescent, 19% of the Moon is Illuminated
Oct 11
Waxing Crescent
Oct 14
First Quarter
Oct 22
Full
Oct 30
Last Quarter
Nov 6
New

Hourly Weather History & Observations

Time (EDT) Temp. Heat Index Dew Point Humidity Pressure Visibility Wind Dir Wind Speed Gust Speed Precip Events Conditions
12:53 AM 77.0 °F - 69.1 °F 76% 29.99 in 10.0 mi ENE 4.6 mph - N/A   Clear
1:53 AM 77.0 °F - 70.0 °F 79% 29.98 in 10.0 mi NE 3.5 mph - N/A   Clear
2:53 AM 75.9 °F - 70.0 °F 82% 29.97 in 10.0 mi NE 4.6 mph - N/A   Clear
3:53 AM 77.0 °F - 70.0 °F 79% 29.96 in 10.0 mi NE 4.6 mph - N/A   Clear
4:53 AM 75.9 °F - 70.0 °F 82% 29.96 in 10.0 mi NE 4.6 mph - N/A   Clear
5:53 AM 75.9 °F - 70.0 °F 82% 29.96 in 10.0 mi NE 5.8 mph - N/A   Clear
6:53 AM 77.0 °F - 71.1 °F 82% 29.97 in 10.0 mi NE 8.1 mph - N/A   Clear
7:53 AM 77.0 °F - 71.1 °F 82% 29.98 in 10.0 mi NE 5.8 mph - N/A   Scattered Clouds
8:53 AM 79.0 °F - 71.1 °F 77% 30.00 in 10.0 mi NE 10.4 mph 16.1 mph N/A   Clear
9:53 AM 80.1 °F 83.6 °F 71.1 °F 74% 30.01 in 10.0 mi NE 8.1 mph 17.3 mph N/A   Clear
10:53 AM 82.0 °F 86.3 °F 71.1 °F 69% 30.02 in 10.0 mi NE 9.2 mph - N/A   Clear
11:53 AM 82.9 °F 87.0 °F 70.0 °F 65% 30.01 in 10.0 mi East 9.2 mph 18.4 mph N/A   Clear
12:53 PM 84.0 °F 88.4 °F 70.0 °F 63% 30.00 in 10.0 mi East 9.2 mph 18.4 mph N/A   Clear
1:53 PM 84.0 °F 87.8 °F 69.1 °F 61% 29.98 in 10.0 mi East 13.8 mph 18.4 mph N/A   Partly Cloudy
2:53 PM 84.0 °F 87.0 °F 68.0 °F 58% 29.96 in 10.0 mi East 13.8 mph 19.6 mph N/A   Clear
3:53 PM 84.0 °F 87.8 °F 69.1 °F 61% 29.94 in 10.0 mi East 10.4 mph - N/A   Clear
4:53 PM 82.9 °F 86.5 °F 69.1 °F 63% 29.95 in 10.0 mi East 15.0 mph - N/A   Clear
5:53 PM 82.0 °F 85.5 °F 69.1 °F 65% 29.95 in 10.0 mi East 12.7 mph - N/A   Clear
6:53 PM 81.0 °F 84.4 °F 70.0 °F 69% 29.96 in 10.0 mi East 11.5 mph - N/A   Overcast
7:53 PM 80.1 °F 83.2 °F 70.0 °F 71% 29.96 in 10.0 mi East 10.4 mph - N/A   Overcast
8:53 PM 80.1 °F 83.2 °F 70.0 °F 71% 29.97 in 10.0 mi East 10.4 mph - N/A   Overcast
9:53 PM 80.1 °F 83.6 °F 71.1 °F 74% 29.99 in 10.0 mi East 11.5 mph - N/A   Overcast
10:53 PM 80.1 °F 83.8 °F 72.0 °F 76% 29.99 in 10.0 mi East 12.7 mph - N/A   Overcast
11:53 PM 80.1 °F 83.8 °F 72.0 °F 76% 29.96 in 10.0 mi East 10.4 mph - N/A   Mostly Cloudy